User: anonymous   Login
Location: NJAA Observatory
(40.6819°N, 74.8979°W)
Time: 06:02:30
(UTC-04:00)
Language:

Cosmos 2263 Rocket - Orbit

View from above orbital plane
View from above orbital plane
View from above satellite
View from above satellite

Ground track
Ground track

The orbit data is extracted from the following two-line orbital elements,

1 22803U 93059B   15147.84213719  .00000009  00000-0  28512-4 0  9995
2 22803 070.9915 032.6290 0015010 089.8720 270.4124 14.16715474121869
Epoch (UTC): 27 May 2015 20:12:40
Eccentricity: 0.0015010
inclination: 70.9915°
perigee height: 825 km
apogee height: 847 km
right ascension of ascending node: 32.6290°
argument of perigee: 89.8720°
revolutions per day: 14.16715474
mean anomaly at epoch: 270.4124°
orbit number at epoch: 12186

The dashed part of the orbit path shows where the satellite is in the earth's shadow,  

DLR